Tracking 19709 objects as of 19-Jun-2019
HD Live streaming from Space Station
objects crossing your sky now

SSC

Track SSC now!
10-day predictions
SSC is classified as:


NORAD ID: 13874
Int'l Code: 1983-008H
Perigee: 378.5 km
Apogee: 1,739.3 km
Inclination: 63.3 °
Period: 106.2 minutes
Semi major axis: 7429 km
RCS: Unknown
Launch date: February 9, 1983
Source: United States (US)
Launch site: AIR FORCE WESTERN TEST RANGE (AFWTR)
aabbcc
Your satellite tracking list
Your tracking list is empty




NASA's NSSDC Master Catalog

Two Line Element Set (TLE):
1 13874U 83008H   19170.14801105  .00000892  00000-0  75685-4 0  9994
2 13874  63.2895  75.2471 0915798  87.5439 282.9991 13.55592461  2822
Source of the keplerian elements: McCants